K8RRT Weather Reports


Display with metric or nautical units.
time (UTC)temp
F
wind
direction
speed
MPH
gust
MPH
rain 1hr
in
rain 24hr
in
rain mn
in
humidity
%
barometer
mb
20260508131252 54 252 5.0 7.0 0.00 0.00 0.00 63 1012.8
20260508130749 53 242 4.0 6.0 0.00 0.00 0.00 64 1012.7
20260508130246 53 270 1.0 2.0 0.00 0.00 0.00 67 1012.8
20260508125742 52 247 3.0 3.0 0.00 0.00 0.00 68 1012.6
20260508125238 52 251 1.0 2.0 0.00 0.00 0.00 72 1012.8
20260508124737 51 277 4.0 5.0 0.00 0.00 0.00 73 1012.8
20260508124233 49 276 1.0 2.0 0.00 0.00 0.00 82 1012.7
20260508123732 47 333 2.0 2.0 0.00 0.00 0.00 88 1012.8
20260508123229 47 16 0.0 0.0 0.00 0.00 0.00 94 1012.5
20260508122725 46 358 0.0 0.0 0.00 0.00 0.00 96 1012.8
20260508122222 45 47 0.0 0.0 0.00 0.00 0.00 99 1012.7
20260508121720 44 20 0.0 1.0 0.00 0.00 0.00 99 1012.5
20260508121219 43 20 0.0 1.0 0.00 0.00 0.00 99 1012.7
20260508120715 43 26 0.0 0.0 0.00 0.00 0.00 99 1012.6
20260508120213 42 24 0.0 0.0 0.00 0.00 0.00 99 1012.6
20260508115711 42 37 0.0 0.0 0.00 0.00 0.00 99 1012.7
20260508115208 43 101 0.0 0.0 0.00 0.00 0.00 99 1012.4
20260508114704 43 128 0.0 0.0 0.00 0.00 0.00 99 1012.6
20260508114201 42 149 0.0 0.0 0.00 0.00 0.00 99 1012.8
20260508113658 42 178 0.0 0.0 0.00 0.00 0.00 99 1012.7
20260508113156 41 144 0.0 0.0 0.00 0.00 0.00 99 1012.7
20260508112652 42 144 0.0 0.0 0.00 0.00 0.00 99 1012.4
20260508112149 43 145 0.0 0.0 0.00 0.00 0.00 99 1012.3
20260508111645 40 145 0.0 0.0 0.00 0.00 0.00 99 1012.4
20260508111143 37 145 0.0 0.0 0.00 0.00 0.00 99 1012.5
20260508110640 36 147 0.0 0.0 0.00 0.00 0.00 99 1012.4
20260508110137 35 149 0.0 0.0 0.00 0.00 0.00 99 1012.2
20260508105632 35 149 0.0 0.0 0.00 0.00 0.00 99 1012.2
20260508105129 35 148 0.0 0.0 0.00 0.00 0.00 99 1012.3
20260508104627 35 149 0.0 0.0 0.00 0.00 0.00 99 1012.2
20260508104123 35 149 0.0 0.0 0.00 0.00 0.00 99 1012.2
20260508103621 35 148 0.0 0.0 0.00 0.00 0.00 99 1012.1
20260508103118 35 149 0.0 0.0 0.00 0.00 0.00 99 1012.3
20260508102615 35 148 0.0 0.0 0.00 0.00 0.00 99 1012.1
20260508102113 35 148 0.0 0.0 0.00 0.00 0.00 99 1012.1
20260508101610 35 135 0.0 0.0 0.00 0.00 0.00 99 1011.9
20260508101107 35 136 0.0 0.0 0.00 0.00 0.00 99 1011.7
20260508100605 35 135 0.0 0.0 0.00 0.00 0.00 99 1011.9
20260508095558 35 135 0.0 1.0 0.00 0.00 0.00 99 1011.8
20260508095055 35 130 0.0 0.0 0.00 0.00 0.00 99 1012.0
20260508094552 35 164 0.0 0.0 0.00 0.00 0.00 99 1011.8
20260508094049 34 164 0.0 0.0 0.00 0.00 0.00 99 1011.7
20260508093547 35 164 0.0 0.0 0.00 0.00 0.00 99 1011.7
20260508093044 35 165 0.0 0.0 0.00 0.00 0.00 99 1011.7
20260508092541 35 165 0.0 0.0 0.00 0.00 0.00 99 1011.8
20260508092040 35 165 0.0 0.0 0.00 0.00 0.00 99 1011.8
20260508091537 35 165 0.0 0.0 0.00 0.00 0.00 99 1011.9
20260508091034 35 165 0.0 0.0 0.00 0.00 0.00 99 1011.8
20260508090532 34 165 0.0 0.0 0.00 0.00 0.00 99 1011.7
20260508090028 34 165 0.0 0.0 0.00 0.00 0.00 99 1011.8
20260508085525 34 165 0.0 0.0 0.00 0.00 0.00 99 1011.6
20260508085022 35 165 0.0 0.0 0.00 0.00 0.00 99 1011.7
20260508084519 35 165 0.0 0.0 0.00 0.00 0.00 99 1011.7
20260508084016 36 165 0.0 0.0 0.00 0.00 0.00 99 1011.7
20260508083513 36 164 0.0 0.0 0.00 0.00 0.00 99 1011.5
20260508083009 36 164 0.0 0.0 0.00 0.00 0.00 99 1011.6
20260508082505 35 165 0.0 0.0 0.00 0.00 0.00 99 1011.7
20260508082003 35 165 0.0 0.0 0.00 0.00 0.00 99 1011.7
20260508081500 35 165 0.0 0.0 0.00 0.00 0.00 99 1011.6
20260508080956 35 165 0.0 0.0 0.00 0.00 0.00 99 1011.6
20260508080454 36 165 0.0 0.0 0.00 0.00 0.00 99 1011.5
20260508075951 35 165 0.0 0.0 0.00 0.00 0.00 99 1011.5
20260508075448 36 165 0.0 0.0 0.00 0.00 0.00 99 1011.7
20260508074945 36 165 0.0 0.0 0.00 0.00 0.00 99 1011.5
20260508074443 36 165 0.0 0.0 0.00 0.00 0.00 99 1011.4
20260508073940 36 165 0.0 0.0 0.00 0.00 0.00 99 1011.3
20260508073437 36 165 0.0 0.0 0.00 0.00 0.00 99 1011.5
20260508072934 37 164 0.0 0.0 0.00 0.00 0.00 99 1011.3
20260508072430 36 145 0.0 0.0 0.00 0.00 0.00 99 1011.5
20260508071927 37 145 0.0 0.0 0.00 0.00 0.00 99 1011.6
20260508071425 37 145 0.0 0.0 0.00 0.00 0.00 99 1011.4
20260508070923 37 139 0.0 0.0 0.00 0.00 0.00 99 1011.4
20260508070421 37 165 0.0 0.0 0.00 0.00 0.00 99 1011.6
20260508065918 37 218 0.0 0.0 0.00 0.00 0.00 99 1011.5
20260508065416 37 218 0.0 0.0 0.00 0.00 0.00 99 1011.5
20260508064914 36 219 0.0 0.0 0.00 0.00 0.00 99 1011.5
20260508064411 37 219 0.0 0.0 0.00 0.00 0.00 99 1011.6
20260508063909 36 219 0.0 0.0 0.00 0.00 0.00 99 1011.5
20260508063406 37 219 0.0 0.0 0.00 0.00 0.00 99 1011.5
20260508062903 37 219 0.0 0.0 0.00 0.00 0.00 99 1011.7
20260508062401 37 219 0.0 0.0 0.00 0.00 0.00 99 1011.6
20260508061858 37 219 0.0 0.0 0.00 0.00 0.00 99 1011.6
20260508061355 37 218 0.0 0.0 0.00 0.00 0.00 99 1011.5
20260508060851 38 219 0.0 0.0 0.00 0.00 0.00 99 1011.8
20260508060349 38 219 0.0 0.0 0.00 0.00 0.00 99 1011.8
20260508055844 37 219 0.0 0.0 0.00 0.00 0.00 98 1011.7
20260508055342 38 219 0.0 0.0 0.00 0.00 0.00 98 1011.7
20260508054838 38 218 0.0 0.0 0.00 0.00 0.00 98 1011.7
20260508054336 38 218 0.0 0.0 0.00 0.00 0.00 98 1011.6
20260508053832 39 218 0.0 0.0 0.00 0.00 0.00 98 1011.7
20260508053330 39 218 0.0 0.0 0.00 0.00 0.00 98 1011.6
20260508052827 39 218 0.0 0.0 0.00 0.00 0.00 98 1011.7
20260508052324 39 218 0.0 0.0 0.00 0.00 0.00 98 1011.6
20260508051821 38 218 0.0 0.0 0.00 0.00 0.00 98 1011.6
20260508051316 38 219 0.0 0.0 0.00 0.00 0.00 97 1011.8
20260508050812 39 219 0.0 0.0 0.00 0.00 0.00 97 1011.5
20260508050310 39 219 0.0 0.0 0.00 0.00 0.00 97 1011.5
20260508045805 39 219 0.0 0.0 0.00 0.00 0.00 96 1011.6
20260508045306 39 219 0.0 0.0 0.00 0.00 0.00 97 1011.6
20260508044801 40 219 0.0 0.0 0.00 0.00 0.00 97 1011.8
20260508044257 40 219 0.0 0.0 0.00 0.00 0.00 96 1011.5
20260508043753 40 219 0.0 0.0 0.00 0.00 0.00 96 1011.7
20260508043251 39 219 0.0 0.0 0.00 0.00 0.00 97 1011.6
20260508042747 40 219 0.0 0.0 0.00 0.00 0.00 96 1011.7
20260508042245 40 219 0.0 0.0 0.00 0.00 0.00 96 1011.5
20260508041741 41 219 0.0 0.0 0.00 0.00 0.00 96 1011.5
20260508041238 41 219 0.0 0.0 0.00 0.00 0.00 96 1011.7
20260508040734 40 219 0.0 0.0 0.00 0.00 0.00 96 1011.6
20260508040232 39 220 0.0 0.0 0.00 0.00 0.00 95 1011.8
20260508035729 39 220 0.0 0.0 0.00 0.00 0.00 94 1011.5
20260508035226 40 220 0.0 0.0 0.00 0.00 0.00 94 1011.4
20260508034723 40 219 0.0 0.0 0.00 0.00 0.00 94 1011.6
20260508034221 40 220 0.0 0.0 0.00 0.00 0.00 93 1011.7
20260508033717 40 220 0.0 0.0 0.00 0.00 0.00 93 1011.6
20260508033216 41 220 0.0 0.0 0.00 0.00 0.00 92 1011.7
20260508032713 41 220 0.0 0.0 0.00 0.00 0.00 92 1011.7
20260508032209 41 219 0.0 0.0 0.00 0.00 0.00 91 1011.6
20260508031707 42 219 0.0 0.0 0.00 0.00 0.00 90 1011.7
20260508031203 42 219 0.0 0.0 0.00 0.00 0.00 90 1011.5
20260508030659 42 219 0.0 0.0 0.00 0.00 0.00 89 1011.6
20260508030157 43 219 0.0 0.0 0.00 0.00 0.00 89 1011.5
20260508025653 43 220 0.0 0.0 0.00 0.00 0.00 89 1011.6
20260508025150 43 220 0.0 0.0 0.00 0.00 0.00 88 1011.5
20260508024646 42 219 0.0 0.0 0.00 0.00 0.00 88 1011.4
20260508024143 42 219 0.0 0.0 0.00 0.00 0.00 87 1011.2
20260508023639 43 219 0.0 0.0 0.00 0.00 0.00 85 1011.1
20260508023137 43 219 0.0 0.0 0.00 0.00 0.00 85 1011.4
20260508022633 44 219 0.0 0.0 0.00 0.00 0.00 83 1010.9
20260508022130 44 219 0.0 0.0 0.00 0.00 0.00 82 1010.9
20260508021626 45 220 0.0 0.0 0.00 0.00 0.00 80 1011.0
20260508021122 45 218 0.0 0.0 0.00 0.00 0.00 80 1011.0
20260508020620 46 223 0.0 0.0 0.00 0.00 0.00 80 1010.7
20260508020117 46 243 0.0 0.0 0.00 0.00 0.00 80 1010.7
20260508015615 47 266 0.0 1.0 0.00 0.00 0.00 78 1010.8
20260508015111 47 224 1.0 1.0 0.00 0.00 0.00 77 1010.6
20260508014607 48 244 0.0 0.0 0.00 0.00 0.00 76 1010.5
20260508014104 48 240 0.0 0.0 0.00 0.00 0.00 73 1010.3
20260508013600 48 240 0.0 0.0 0.00 0.00 0.00 72 1010.5
20260508013057 49 240 0.0 0.0 0.00 0.00 0.00 69 1010.4
20260508012555 49 227 0.0 1.0 0.00 0.00 0.00 67 1010.2
20260508012052 49 245 0.0 0.0 0.00 0.00 0.00 66 1010.3
20260508011550 50 246 0.0 1.0 0.00 0.00 0.00 64 1010.1
20260508011047 51 191 1.0 1.0 0.00 0.00 0.00 63 1010.0
20260508010544 51 173 1.0 1.0 0.00 0.00 0.00 63 1010.0
20260508010041 51 204 0.0 1.0 0.00 0.00 0.00 61 1009.8
20260508005538 52 233 0.0 0.0 0.00 0.00 0.00 59 1009.8
20260508005034 53 243 1.0 1.0 0.00 0.00 0.00 57 1009.8
20260508004530 54 248 1.0 1.0 0.00 0.00 0.00 58 1009.5
20260508004027 55 299 0.0 0.0 0.00 0.00 0.00 56 1009.7
20260508003524 55 274 0.0 1.0 0.00 0.00 0.00 53 1009.7
20260508003022 55 14 0.0 0.0 0.00 0.00 0.00 49 1009.6
20260508002517 57 21 0.0 0.0 0.00 0.00 0.00 47 1009.5
20260508002015 57 7 0.0 0.0 0.00 0.00 0.00 46 1009.4
20260508001510 59 320 0.0 0.0 0.00 0.00 0.00 44 1009.5
20260508001007 59 314 1.0 2.0 0.00 0.00 0.00 42 1009.3
20260508000503 60 303 1.0 1.0 0.00 0.00 0.00 42 1009.1
20260508000000 60 308 1.0 1.0 0.00 0.00 0.00 40 1009.2
20260507235456 60 317 3.0 3.0 0.00 0.00 0.00 40 1009.2
20260507234954 61 319 3.0 3.0 0.00 0.00 0.00 40 1009.2
20260507234451 61 309 6.0 7.0 0.00 0.00 0.00 37 1009.1
20260507233949 61 316 3.0 3.0 0.00 0.00 0.00 37 1009.0
20260507233444 61 300 4.0 5.0 0.00 0.00 0.00 39 1009.0
20260507232943 61 315 5.0 7.0 0.00 0.00 0.00 41 1008.9
20260507232438 62 320 5.0 6.0 0.00 0.00 0.00 39 1008.8
20260507231936 62 295 6.0 8.0 0.00 0.00 0.00 37 1008.8
20260507231432 62 312 5.0 6.0 0.00 0.00 0.00 38 1008.7
20260507230929 63 344 3.0 3.0 0.00 0.00 0.00 38 1008.8
20260507230426 63 338 3.0 3.0 0.00 0.00 0.00 39 1008.8
20260507225926 63 303 4.0 6.0 0.00 0.00 0.00 38 1008.8
20260507225423 63 292 5.0 6.0 0.00 0.00 0.00 38 1008.7
20260507224919 63 317 5.0 6.0 0.00 0.00 0.00 39 1008.9
20260507224415 63 338 2.0 3.0 0.00 0.00 0.00 41 1008.7
20260507223912 63 316 9.0 11.0 0.00 0.00 0.00 38 1008.6
20260507223408 63 326 6.0 9.0 0.00 0.00 0.00 39 1008.8
20260507222905 63 330 5.0 7.0 0.00 0.00 0.00 43 1008.5
20260507222402 64 333 4.0 6.0 0.00 0.00 0.00 42 1008.4
20260507221859 63 330 7.0 10.0 0.00 0.00 0.00 43 1008.5
20260507221355 63 333 8.0 10.0 0.00 0.00 0.00 41 1008.6
20260507220851 64 255 5.0 8.0 0.00 0.00 0.00 41 1008.5
20260507220349 64 320 7.0 9.0 0.00 0.00 0.00 43 1008.1
20260507215846 63 295 6.0 7.0 0.00 0.00 0.00 42 1008.3
20260507215342 63 340 7.0 8.0 0.00 0.00 0.00 43 1008.4
20260507214840 64 313 3.0 5.0 0.00 0.00 0.00 45 1008.1
20260507214338 64 292 5.0 6.0 0.00 0.00 0.00 43 1008.3
20260507213832 63 308 3.0 5.0 0.00 0.00 0.00 44 1008.2
20260507213329 64 317 6.0 8.0 0.00 0.00 0.00 43 1008.1
20260507212826 63 279 4.0 5.0 0.00 0.00 0.00 42 1008.0
20260507212322 64 233 3.0 6.0 0.00 0.00 0.00 43 1008.1
20260507211818 64 294 7.0 8.0 0.00 0.00 0.00 43 1008.1
20260507211315 64 290 12.0 16.0 0.00 0.00 0.00 41 1008.0
20260507210812 64 304 5.0 7.0 0.00 0.00 0.00 44 1008.0
20260507210309 65 314 8.0 10.0 0.00 0.00 0.00 44 1007.9
20260507205805 64 302 4.0 5.0 0.00 0.00 0.00 45 1007.8
20260507205306 63 308 6.0 7.0 0.00 0.00 0.00 44 1008.0
20260507204758 63 320 6.0 7.0 0.00 0.00 0.00 46 1007.5
20260507204256 64 347 6.0 8.0 0.00 0.00 0.00 46 1007.6
20260507203754 63 290 3.0 5.0 0.00 0.00 0.00 47 1007.8
20260507203252 65 320 7.0 8.0 0.00 0.00 0.00 43 1007.6
20260507202748 65 329 5.0 7.0 0.00 0.00 0.00 44 1007.7
20260507202243 64 260 9.0 11.0 0.00 0.00 0.00 44 1007.6
20260507201738 64 297 7.0 8.0 0.00 0.00 0.00 45 1007.8
20260507201235 63 334 5.0 8.0 0.00 0.00 0.00 44 1008.0
20260507200732 63 303 5.0 7.0 0.00 0.00 0.00 49 1007.9
20260507200228 61 353 4.0 6.0 0.00 0.00 0.00 49 1008.2
20260507195724 61 316 6.0 7.0 0.00 0.00 0.00 48 1008.2
20260507195222 62 348 8.0 9.0 0.00 0.00 0.00 47 1008.1
20260507194719 62 313 3.0 5.0 0.00 0.00 0.00 47 1008.1
20260507194215 63 308 4.0 5.0 0.00 0.00 0.00 51 1008.0
20260507193712 62 256 5.0 6.0 0.00 0.00 0.00 47 1008.1
20260507193209 63 280 6.0 7.0 0.00 0.00 0.00 48 1008.2
20260507192704 63 282 10.0 11.0 0.00 0.00 0.00 46 1008.4
20260507192202 62 249 5.0 6.0 0.00 0.00 0.00 47 1008.2
20260507191657 63 261 7.0 9.0 0.00 0.00 0.00 47 1008.4
20260507191155 64 287 10.0 11.0 0.00 0.00 0.00 46 1008.1
20260507190651 63 238 8.0 13.0 0.00 0.00 0.00 44 1008.4
20260507190150 62 287 5.0 6.0 0.00 0.00 0.00 51 1008.6
20260507185648 62 308 6.0 8.0 0.00 0.00 0.00 49 1008.7
20260507185144 63 298 8.0 10.0 0.00 0.00 0.00 49 1008.7
20260507184642 64 243 3.0 5.0 0.00 0.00 0.00 49 1008.6
20260507184140 63 335 4.0 5.0 0.00 0.00 0.00 54 1008.6
20260507183636 62 9 7.0 8.0 0.00 0.00 0.00 53 1008.7
20260507183133 62 13 3.0 5.0 0.00 0.00 0.00 52 1008.9
20260507182630 60 329 5.0 6.0 0.00 0.00 0.00 52 1008.5
20260507182126 62 346 5.0 6.0 0.00 0.00 0.00 50 1008.5
20260507181622 61 269 4.0 6.0 0.00 0.00 0.00 55 1008.6
20260507181118 61 305 3.0 5.0 0.00 0.00 0.00 54 1008.6
20260507180615 63 287 6.0 7.0 0.00 0.00 0.00 49 1008.7
20260507180113 63 263 5.0 7.0 0.00 0.00 0.00 51 1008.8
20260507175608 63 292 6.0 8.0 0.00 0.00 0.00 52 1008.9
20260507175106 62 239 8.0 9.0 0.00 0.00 0.00 47 1008.7
20260507174603 60 271 5.0 6.0 0.00 0.00 0.00 56 1008.9
20260507174101 60 317 5.0 7.0 0.00 0.00 0.00 55 1009.1
20260507173557 61 290 8.0 9.0 0.00 0.00 0.00 53 1009.0
20260507173055 62 335 4.0 6.0 0.00 0.00 0.00 54 1008.7
20260507172550 61 322 8.0 9.0 0.00 0.00 0.00 54 1009.1
20260507172048 62 253 7.0 9.0 0.00 0.00 0.00 53 1008.9
20260507171543 62 296 3.0 3.0 0.00 0.00 0.00 58 1009.1
20260507171040 61 317 7.0 7.0 0.00 0.00 0.00 55 1009.1
20260507170537 60 285 6.0 7.0 0.00 0.00 0.00 54 1009.3
20260507170034 61 297 6.0 9.0 0.00 0.00 0.00 54 1009.1
20260507165529 61 299 5.0 7.0 0.00 0.00 0.00 55 1009.3
20260507165026 61 301 2.0 2.0 0.00 0.00 0.00 58 1009.4
20260507164522 61 308 2.0 2.0 0.00 0.00 0.00 56 1009.4
20260507164020 61 338 6.0 8.0 0.00 0.00 0.00 57 1009.4
20260507163517 60 324 2.0 2.0 0.00 0.00 0.00 60 1009.3
20260507163015 59 296 7.0 7.0 0.00 0.00 0.00 59 1009.4
20260507162509 60 343 1.0 1.0 0.00 0.00 0.00 62 1009.4
20260507162007 60 247 2.0 2.0 0.00 0.00 0.00 57 1009.6
20260507161503 59 227 3.0 3.0 0.00 0.00 0.00 61 1009.8
20260507161000 59 42 2.0 3.0 0.00 0.00 0.00 57 1009.6
20260507160455 59 325 2.0 2.0 0.00 0.00 0.00 61 1009.7
20260507155951 59 354 3.0 3.0 0.00 0.00 0.00 59 1009.8
20260507155447 59 356 3.0 5.0 0.00 0.00 0.00 60 1009.7
20260507154945 59 345 4.0 5.0 0.00 0.00 0.00 58 1009.6
20260507154441 60 286 3.0 3.0 0.00 0.00 0.00 56 1010.1
20260507153938 61 310 1.0 3.0 0.00 0.00 0.00 56 1009.8
20260507153435 58 23 0.0 0.0 0.00 0.00 0.00 60 1009.7
20260507152931 57 330 1.0 1.0 0.00 0.00 0.00 59 1009.7
20260507152428 58 316 3.0 3.0 0.00 0.00 0.00 60 1009.7
20260507151924 58 55 1.0 1.0 0.00 0.00 0.00 57 1009.6
20260507151420 58 29 4.0 6.0 0.00 0.00 0.00 57 1009.5
20260507150917 59 295 3.0 5.0 0.00 0.00 0.00 60 1009.7
20260507150414 59 267 1.0 1.0 0.00 0.00 0.00 58 1009.7
20260507145911 58 260 4.0 5.0 0.00 0.00 0.00 58 1009.7
20260507145406 59 338 6.0 7.0 0.00 0.00 0.00 57 1009.8
20260507144904 59 45 2.0 3.0 0.00 0.00 0.00 61 1009.7
20260507144401 58 114 5.0 6.0 0.00 0.00 0.00 57 1009.8
20260507143857 58 11 3.0 3.0 0.00 0.00 0.00 57 1009.6
20260507143355 58 306 3.0 5.0 0.00 0.00 0.00 59 1009.7
20260507142851 58 22 1.0 1.0 0.00 0.00 0.00 60 1009.8
20260507142347 59 326 3.0 6.0 0.00 0.00 0.00 59 1010.1
20260507141844 58 13 4.0 5.0 0.00 0.00 0.00 60 1010.0
20260507141341 59 1 3.0 3.0 0.00 0.00 0.00 63 1009.8
20260507140837 58 55 3.0 5.0 0.00 0.00 0.00 61 1010.1
20260507140334 57 11 5.0 6.0 0.00 0.00 0.00 62 1010.2
20260507135832 58 55 4.0 5.0 0.00 0.00 0.00 62 1010.3
20260507135329 58 186 1.0 1.0 0.00 0.00 0.00 61 1010.3
20260507134826 58 95 2.0 2.0 0.00 0.00 0.00 61 1010.3
20260507134322 57 237 1.0 1.0 0.00 0.00 0.00 63 1010.4
20260507133818 55 98 2.0 2.0 0.00 0.00 0.00 68 1010.6
20260507133314 55 306 1.0 1.0 0.00 0.00 0.00 72 1010.7
20260507132812 55 309 0.0 0.0 0.00 0.00 0.00 74 1010.8
20260507132308 54 315 0.0 0.0 0.00 0.00 0.00 76 1010.8
20260507131806 54 321 1.0 1.0 0.00 0.00 0.00 76 1010.5